Weather History for Providence, RI

Change the Weather History Date:

Tuesday, July 9, 2013

  Actual Average Record
Temperature  
Mean Temperature 74 °F 73 °F  
Max Temperature 79 °F 83 °F 99 °F (1981)
Min Temperature 68 °F 64 °F 51 °F (1909)
Degree Days  
Heating Degree Days 0 0  
Month to date heating degree days 0 0  
Since 1 June heating degree days 24 43  
Since 1 July heating degree days 0 0  
Cooling Degree Days 9 8  
Month to date cooling degree days 139 70  
Year to date cooling degree days 347 228  
Since 1 June cooling degree days 303 202  
Growing Degree Days 24 (Base 50)    
Moisture  
Dew Point 67 °F    
Average Humidity 82    
Maximum Humidity 93    
Minimum Humidity 71    
Precipitation  
Precipitation 0.07 in 0.10 in 1.31 in (1962)
Month to date precipitation 0.30 0.82  
Year to date precipitation 24.98 24.53  
Snow  
Snow 0.00 in 0.00 in 0.00 in (2002)
Month to date snowfall 0.0 0.0  
Since 1 June snowfall 0.0 0.0  
Since 1 July snowfall 0.0 0.0  
Snow Depth 0.00 in    
Sea Level Pressure  
Sea Level Pressure 30.07 in    
Wind  
Wind Speed 5 mph (ENE)    
Max Wind Speed 15 mph    
Max Gust Speed 17 mph    
Visibility 6 miles    
Events Rain , Thunderstorm    
T = Trace of Precipitation, MM = Missing Value Source: NWS Daily Summary

Daily Weather History Graph

Daily Weather History Graph

Search for Another Location

Airport:

Trip Planner

Search our weather history database for the weather conditions in past years. The results will help you decide how hot, cold, wet, or windy it might be!

Date:

Astronomy

Jul. 09, 2013 Rise Set
Actual Time 5:19 AM EDT 8:21 PM EDT
Civil Twilight 4:46 AM EDT 8:55 PM EDT
Nautical Twilight 4:03 AM EDT 9:37 PM EDT
Astronomical Twilight 3:13 AM EDT 10:28 PM EDT
Moon 6:43 AM EDT (7/9) 8:55 PM EDT (7/9)
Length of Visible Light 16h 08m
Length of Day
15h 01m
New Moon, 2% of the Moon is Illuminated
Jul 9
New Moon
Jul 15
First Quarter
Jul 22
Full
Jul 29
Last Quarter
Aug 6
New

Hourly Weather History & Observations

Time (EDT) Temp. Dew Point Humidity Pressure Visibility Wind Dir Wind Speed Gust Speed Precip Events Conditions
12:13 AM 69.8 °F 68.0 °F 94% 30.05 in 7.0 mi NE 6.9 mph - N/A   Scattered Clouds
12:33 AM 69.8 °F 68.0 °F 94% 30.05 in 7.0 mi ENE 4.6 mph - N/A   Mostly Cloudy
12:51 AM 70.0 °F 66.9 °F 90% 30.04 in 7.0 mi NNE 6.9 mph - N/A   Mostly Cloudy
1:51 AM 70.0 °F 66.9 °F 90% 30.04 in 7.0 mi NNE 9.2 mph - N/A   Overcast
2:51 AM 69.1 °F 66.9 °F 93% 30.05 in 5.0 mi ENE 3.5 mph - N/A   Overcast
3:21 AM 69.8 °F 66.2 °F 88% 30.04 in 2.5 mi East 3.5 mph - N/A   Overcast
3:44 AM 69.8 °F 66.2 °F 88% 30.04 in 1.5 mi NNE 3.5 mph - N/A   Overcast
3:51 AM 68.0 °F 66.9 °F 96% 30.04 in 1.2 mi NE 4.6 mph - N/A   Overcast
4:22 AM 68.0 °F 66.2 °F 94% 30.04 in 0.8 mi North 9.2 mph - N/A   Mist
4:36 AM 68.0 °F 66.2 °F 94% 30.05 in 1.8 mi North 6.9 mph - N/A   Overcast
4:43 AM 68.0 °F 66.2 °F 94% 30.05 in 2.5 mi North 6.9 mph - N/A   Overcast
4:51 AM 68.0 °F 66.9 °F 96% 30.05 in 2.0 mi NNE 6.9 mph - N/A   Overcast
5:01 AM 69.8 °F 66.2 °F 88% 30.06 in 4.0 mi NNE 5.8 mph - N/A   Overcast
5:51 AM 68.0 °F 66.9 °F 96% 30.07 in 2.0 mi NE 6.9 mph - N/A   Overcast
6:30 AM 68.0 °F 66.2 °F 94% 30.08 in 1.8 mi NE 6.9 mph - N/A   Overcast
6:51 AM 68.0 °F 66.0 °F 93% 30.09 in 1.8 mi NE 4.6 mph - N/A   Overcast
7:12 AM 68.0 °F 66.2 °F 94% 30.09 in 3.0 mi NNE 6.9 mph - N/A   Overcast
7:34 AM 69.8 °F 66.2 °F 88% 30.09 in 3.0 mi NNE 5.8 mph - N/A   Overcast
7:51 AM 70.0 °F 66.0 °F 87% 30.09 in 3.0 mi NE 5.8 mph - N/A   Overcast
8:51 AM 71.1 °F 66.9 °F 87% 30.10 in 7.0 mi Variable 3.5 mph - N/A   Overcast
9:35 AM 71.6 °F 66.2 °F 83% 30.09 in 10.0 mi ENE 3.5 mph - N/A   Overcast
9:51 AM 73.0 °F 66.9 °F 81% 30.09 in 10.0 mi Variable 4.6 mph - N/A   Overcast
10:51 AM 73.9 °F 66.9 °F 79% 30.10 in 10.0 mi Calm Calm - N/A   Overcast
11:13 AM 73.4 °F 66.2 °F 78% 30.10 in 10.0 mi ESE 3.5 mph - N/A   Overcast
11:49 AM 73.4 °F 66.2 °F 78% 30.10 in 10.0 mi ESE 3.5 mph - N/A   Overcast
11:51 AM 73.9 °F 66.9 °F 79% 30.10 in 10.0 mi SE 3.5 mph - N/A   Overcast
12:36 PM 75.2 °F 68.0 °F 78% 30.10 in 10.0 mi Calm Calm - N/A   Overcast
12:51 PM 75.0 °F 68.0 °F 79% 30.09 in 10.0 mi ENE 3.5 mph - N/A   Overcast
1:51 PM 77.0 °F 68.0 °F 74% 30.08 in 10.0 mi NNE 8.1 mph - N/A   Mostly Cloudy
2:51 PM 78.1 °F 68.0 °F 71% 30.09 in 7.0 mi Variable 3.5 mph - N/A   Overcast
3:00 PM 78.8 °F 68.0 °F 69% 30.10 in 7.0 mi South 5.8 mph - N/A Thunderstorm Thunderstorm
3:36 PM 69.8 °F 64.4 °F 83% 30.10 in 7.0 mi West 6.9 mph - 0.07 in Rain , Thunderstorm Light Thunderstorms and Rain
3:44 PM 69.8 °F 64.4 °F 83% 30.09 in 10.0 mi West 4.6 mph - 0.07 in Rain Light Rain
3:51 PM 71.1 °F 64.9 °F 81% 30.08 in 10.0 mi WNW 3.5 mph - 0.07 in Rain Light Rain
4:51 PM 73.0 °F 66.9 °F 81% 30.06 in 10.0 mi South 3.5 mph - 0.00 in   Mostly Cloudy
5:51 PM 75.9 °F 66.9 °F 74% 30.05 in 10.0 mi East 3.5 mph - N/A   Mostly Cloudy
6:51 PM 75.0 °F 68.0 °F 79% 30.06 in 10.0 mi South 5.8 mph - N/A   Mostly Cloudy
7:10 PM 75.2 °F 69.8 °F 83% 30.06 in 10.0 mi SSW 4.6 mph - N/A   Mostly Cloudy
7:51 PM 73.9 °F 70.0 °F 87% 30.05 in 5.0 mi South 3.5 mph - N/A   Overcast
8:05 PM 73.4 °F 71.6 °F 94% 30.06 in 5.0 mi South 5.8 mph - N/A   Overcast
8:51 PM 73.0 °F 70.0 °F 90% 30.06 in 4.0 mi SE 3.5 mph - N/A   Mostly Cloudy
9:51 PM 72.0 °F 69.1 °F 91% 30.07 in 6.0 mi SE 3.5 mph - N/A   Mostly Cloudy
10:01 PM 71.6 °F 69.8 °F 94% 30.07 in 5.0 mi SE 4.6 mph - N/A   Scattered Clouds
10:40 PM 73.4 °F 69.8 °F 88% 30.07 in 6.0 mi SSE 4.6 mph - N/A   Mostly Cloudy
10:51 PM 73.0 °F 70.0 °F 90% 30.07 in 6.0 mi SE 5.8 mph - N/A   Overcast
11:20 PM 73.4 °F 69.8 °F 88% 30.07 in 6.0 mi SE 3.5 mph - N/A   Overcast
11:51 PM 73.0 °F 70.0 °F 90% 30.06 in 5.0 mi SE 3.5 mph - N/A   Mostly Cloudy